Regional Weather Roundup
Issued by NWS

Home | Current Version | Previous Version | Text Only | Print | Product List | Glossary Off
Versions: 1 2 3 4 5 6 7 8 9 10 11 12 13 14 15 16 17 18 19 20 21 22 23 24 25 26 27 28 29 30 31 32 33 34 35 36 37 38 39 40 41 42 43 44 45 46 47 48 49 50

000
ASUS43 KMKX 141211
RWRWI

WISCONSIN REGIONAL WEATHER ROUNDUP
NATIONAL WEATHER SERVICE MILWAUKEE/SULLIVAN WI
700 AM CDT MON JUL 14 2014

NOTE: "FAIR" INDICATES FEW OR NO CLOUDS BELOW 12,000 FEET WITH NO
SIGNIFICANT WEATHER AND/OR OBSTRUCTIONS TO VISIBILITY.

WIZ001-002-006>008-014>016-023>028-141300-
NORTHWEST WISCONSIN

CITY           SKY/WX    TMP DP  RH WIND       PRES   REMARKS
SUPERIOR ARPT  CLOUDY    53  51  93 W6        29.84R
6HR MIN TEMP:  49; 6HR MAX TEMP:  55; 6HR PCP:  0.03;

ASHLAND        LGT RAIN  53  51  93 W5        29.84R
6HR MIN TEMP:  52; 6HR MAX TEMP:  55; 6HR PCP:  0.03;

HAYWARD        CLOUDY    55  51  86 VRB6      29.84F
6HR MIN TEMP:  53; 6HR MAX TEMP:  57; 6HR PCP:  0.01;

SIREN          LGT RAIN  55  50  85 NW10      29.88R
6HR MIN TEMP:  55; 6HR MAX TEMP:  58;

RICE LAKE      CLOUDY    56  52  84 CALM      29.88S
6HR MIN TEMP:  54; 6HR MAX TEMP:  59;

LADYSMITH      CLOUDY    57  52  83 SW5       29.88R
6HR MIN TEMP:  55; 6HR MAX TEMP:  60;

EAU CLAIRE     CLOUDY    58  53  84 W6        29.87R
6HR MIN TEMP:  56; 6HR MAX TEMP:  58;

MENOMONIE      CLOUDY    58  53  83 CALM      29.88R
6HR MIN TEMP:  56; 6HR MAX TEMP:  59;

NEW RICHMOND   CLOUDY    57  52  84 W5        29.89R
6HR MIN TEMP:  53; 6HR MAX TEMP:  60;

OSCEOLA        PTSUNNY   58  51  77 W8        29.91S
6HR MIN TEMP:  55; 6HR MAX TEMP:  64;

$$

WIZ003>005-009-010-017-018-141300-
NORTH CENTRAL WISCONSIN

CITY           SKY/WX    TMP DP  RH WIND       PRES   REMARKS
WOODRUFF       CLOUDY    57  51  81 CALM      29.84R
6HR MIN TEMP:  52; 6HR MAX TEMP:  59;

RHINELANDER    CLOUDY    54  52  93 CALM      29.84S
6HR MIN TEMP:  50; 6HR MAX TEMP:  55; 6HR PCP: TRACE;

EAGLE RIVER    CLOUDY    53  53 100 CALM      29.83S
6HR MIN TEMP:  50; 6HR MAX TEMP:  55;

LAND O LAKES   CLOUDY    54  50  87 NW5       29.84S
6HR MIN TEMP:  46; 6HR MAX TEMP:  56;

PHILLIPS       CLOUDY    53  50  90 CALM      29.85R
6HR MIN TEMP:  49; 6HR MAX TEMP:  58;

TOMAHAWK       CLOUDY    51  50  96 CALM      29.84S
6HR MIN TEMP:  49; 6HR MAX TEMP:  54; 6HR PCP:  0.01;

MEDFORD        CLOUDY    55  52  91 W5        29.85S
6HR MIN TEMP:  52; 6HR MAX TEMP:  55;

MERRILL        CLOUDY    55  53  94 CALM      29.84S
6HR MIN TEMP:  49; 6HR MAX TEMP:  55;

$$

WIZ029-030-035-036-043>047-141300-
CENTRAL WISCONSIN

CITY           SKY/WX    TMP DP  RH WIND       PRES   REMARKS
WAUSAU         CLOUDY    58  52  80 NW6       29.83S
6HR MIN TEMP:  53; 6HR MAX TEMP:  59;

MOSINEE        CLOUDY    55  55 100 VRB3      29.85S
MARSHFIELD     CLOUDY    57  53  86 W7        29.85R
6HR MIN TEMP:  52; 6HR MAX TEMP:  58;

STEVENS POINT  CLOUDY    52  51  97 CALM      29.85S
6HR MIN TEMP:  48; 6HR MAX TEMP:  61;

WAUPACA        SUNNY     57  55  94 W3        29.84S
6HR MIN TEMP:  52; 6HR MAX TEMP:  58;

WAUTOMA        SUNNY     53  51  93 CALM      29.85F
6HR MIN TEMP:  48; 6HR MAX TEMP:  53;

WISC RAPIDS    SUNNY     56  54  93 SW5       29.86S
6HR MIN TEMP:  49; 6HR MAX TEMP:  56;

CAMP DOUGLAS   MOSUNNY   55  54  94 W3        29.86S
$$

WIZ011>013-019>022-031-037>040-048>050-141300-
NORTHEAST WISCONSIN

CITY           SKY/WX    TMP DP  RH WIND       PRES   REMARKS
ANTIGO         CLOUDY    54  52  92 CALM      29.84S
6HR MIN TEMP:  48; 6HR MAX TEMP:  54;

STURGEON BAY   SUNNY     59  54  82 W3        29.83S
6HR MIN TEMP:  54; 6HR MAX TEMP:  63;

GREEN BAY      SUNNY     58  54  86 SE3       29.83S
6HR MIN TEMP:  53; 6HR MAX TEMP:  62;

MANITOWOC      SUNNY     62  53  72 W6        29.84S
6HR MIN TEMP:  57; 6HR MAX TEMP:  62;

APPLETON       MOSUNNY   59  54  82 W7        29.84S
CLINTONVILLE   CLOUDY    54  52  94 CALM      29.84S
OSHKOSH        SUNNY     62  54  74 SW5       29.84S
6HR MIN TEMP:  57; 6HR MAX TEMP:  62;

$$

WIZ032>034-041-042-053>061-141300-
SOUTHWEST WISCONSIN

CITY           SKY/WX    TMP DP  RH WIND       PRES   REMARKS
LA CROSSE      SUNNY     61  57  87 CALM      29.87S
6HR MIN TEMP:  58; 6HR MAX TEMP:  63;

SPARTA         SUNNY     51  50  95 CALM      29.87S
6HR MIN TEMP:  46; 6HR MAX TEMP:  55;

VIROQUA        FAIR      57  55  95 W6        29.89R
6HR MIN TEMP:  54; 6HR MAX TEMP:  61;

BOSCOBEL       FOG       59  58  96 CALM      29.88S VSB<1/4
6HR MIN TEMP:  56; 6HR MAX TEMP:  59;

PRAIRIE DU CHI SUNNY     60  57  91 CALM      29.88S
6HR MIN TEMP:  57; 6HR MAX TEMP:  62;

PLATTEVILLE    FAIR      61  59  92 CALM      29.89S
6HR MIN TEMP:  59; 6HR MAX TEMP:  64;

$$

WIZ056-057-062-063-064-067-068-141300-
SOUTH CENTRAL WISCONSIN

CITY           SKY/WX    TMP DP  RH WIND       PRES   REMARKS
BARABOO/DELLS  SUNNY     58  54  85 SW3       29.86F
6HR MIN TEMP:  52; 6HR MAX TEMP:  58;

LONE ROCK      FOG       59  55  87 CALM      29.87S VSB 1/4
6HR MIN TEMP:  56; 6HR MAX TEMP:  61;

WATERTOWN      PTSUNNY   60  56  88 CALM      29.86S
6HR MIN TEMP:  53; 6HR MAX TEMP:  60;

MADISON        MOSUNNY   62  56  80 CALM      29.86F
6HR MIN TEMP:  56; 6HR MAX TEMP:  62;

MIDDLETON      FAIR      60  58  91 CALM      29.87S
6HR MIN TEMP:  54; 6HR MAX TEMP:  60;

MONROE         CLOUDY    63  55  77 NW6       29.88S
JANESVILLE     CLOUDY    63  57  82 CALM      29.87S
$$

WIZ051-052-058>065-066-070>072-141300-
SOUTHEAST WISCONSIN

CITY           SKY/WX    TMP DP  RH WIND       PRES   REMARKS
MILWAUKEE      MOSUNNY   65  57  75 CALM      29.87R
6HR MIN TEMP:  60; 6HR MAX TEMP:  67;

WAUKESHA       PTSUNNY   54  52  94 CALM      29.87S
MILWAUKEE/TIMM MOSUNNY   61  54  77 CALM      29.86F
RACINE         CLOUDY    64  57  78 W5        29.88R
6HR MIN TEMP:  59; 6HR MAX TEMP:  66;

BURLINGTON     PTSUNNY   58  58  98 CALM      29.87R
6HR MIN TEMP:  53; 6HR MAX TEMP:  59;

KENOSHA        PTSUNNY   61  59  93 CALM      29.86S
6HR MIN TEMP:  57; 6HR MAX TEMP:  62;

FOND DU LAC    SUNNY     61  54  77 CALM      29.85S
6HR MIN TEMP:  54; 6HR MAX TEMP:  61;

SHEBOYGAN      PTSUNNY   59  53  80 VRB6      29.84F
6HR MIN TEMP:  53; 6HR MAX TEMP:  59;

WEST BEND      SUNNY     57  52  82 CALM      29.86S
JUNEAU         MOSUNNY   59  42  52 CALM      29.87S
6HR MIN TEMP:  55; 6HR MAX TEMP:  59;

$$

LSZ147-162-141300-
LAKE SUPERIOR

STATION/POSITION TIME  TEMP    WIND        PRES    WAVE
                       AIR SEA DIR/SP/G            HT/PER
                 (UTC) (F)     (DEG/KT/KT) (MB)    (FT/S)
W MID LAKE BUOY  1150   44 38  230/  6/  8 1009.5R   1
PORT WING        1100   53     280/  9/ 14 1010.2
SAXON HARBOR     1140          200/  2/  6 1009.8F
$$

LMZ867-665-643>646-141300-
LAKE MICHIGAN

STATION/POSITION TIME  TEMP    WIND        PRES    WAVE
                       AIR SEA DIR/SP/G            HT/PER
                 (UTC) (F)     (DEG/KT/KT) (MB)    (FT/S)
N MID LAKE BUOY  1150   60 59  210/  6/  8 1008.8F   1
NORTHPORT PIER   1100   58     250/  4/  6 1009.8R
SISTER BAY       1010   63     300/  7/  8   N/A
KEWAUNEE LAKESHO 1100   58     300/  4/  5 1010.8F
SHEBOYGAN LAKESH 1200   64     260/  9/ 10 1010.5S
PORT WASHINGTON  1100   63     270/  5/  6 1011.5S
MILWAUKEE LAKESH 1100   66      CALM  /  1   N/A
S MID LAKE BUOY  1150   65 63  240/  4/  4 1011.0R   0
KENOSHA   LAKESH 1200   67     260/  3/  6   N/A
$$

TC  - TEMPERATURE IN CELSIUS
VSB - VISIBILITY IN STATUTE MILES
WCI - WIND CHILL INDEX
HX  - HEAT INDEX



USA.gov is the U.S. government's official web portal to all federal, state and local government web resources and services.